This is the latest recevied weather packets stored in our database for station/object S56WDN-10. If no packets are shown the sender has not sent any weather packets the latest 10 day(s).
| Time | Temp. | Humidity | Pressure | Rain* | Wind** | Luminosity | Snow |
|---|---|---|---|---|---|---|---|
| 1777836423 | 15° C | 59% | 1017.1 hPa | 0 mm | - | - | - |
| 1777836123 | 15.56° C | 58% | 1017 hPa | 0 mm | - | - | - |
| 1777835823 | 16.11° C | 58% | 1017 hPa | 0 mm | - | - | - |
| 1777835523 | 16.11° C | 58% | 1016.9 hPa | 0 mm | - | - | - |
| 1777835223 | 16.11° C | 57% | 1016.8 hPa | 0 mm | - | - | - |
| 1777834923 | 16.67° C | 56% | 1016.7 hPa | 0 mm | - | - | - |
| 1777834623 | 16.67° C | 56% | 1016.6 hPa | 0 mm | - | - | - |
| 1777834323 | 17.22° C | 55% | 1016.4 hPa | 0 mm | - | - | - |
| 1777834023 | 17.78° C | 54% | 1016.4 hPa | 0 mm | - | - | - |
| 1777833723 | 17.78° C | 54% | 1016.4 hPa | 0 mm | - | - | - |
| 1777833423 | 18.33° C | 50% | 1016.2 hPa | 0 mm | - | - | - |
| 1777833123 | 18.33° C | 50% | 1016.4 hPa | 0 mm | - | - | - |
| 1777832823 | 18.89° C | 49% | 1016.3 hPa | 0 mm | - | - | - |
| 1777832523 | 19.44° C | 47% | 1016.3 hPa | 0 mm | - | - | - |
| 1777832223 | 19.44° C | 46% | 1016.1 hPa | 0 mm | - | - | - |
| 1777831923 | 20° C | 45% | 1016.1 hPa | 0 mm | - | - | - |
| 1777831623 | 20.56° C | 43% | 1016 hPa | 0 mm | - | - | - |
| 1777831323 | 20.56° C | 42% | 1015.9 hPa | 0 mm | - | - | - |
| 1777831023 | 21.11° C | 41% | 1015.8 hPa | 0 mm | - | - | - |
| 1777830723 | 21.67° C | 40% | 1015.7 hPa | 0 mm | - | - | - |
| 1777830423 | 22.22° C | 39% | 1015.9 hPa | 0 mm | - | - | - |
| 1777830123 | 22.22° C | 37% | 1015.7 hPa | 0 mm | - | - | - |
| 1777829823 | 22.22° C | 36% | 1015.7 hPa | 0 mm | - | - | - |
| 1777829523 | 22.78° C | 36% | 1015.7 hPa | 0 mm | - | - | - |
| 1777829223 | 22.78° C | 36% | 1015.6 hPa | 0 mm | - | - | - |
* Rain latest hour (hover to see other rain measurements)
** Current wind speed in m/s (hover to see current wind gust speed)